Regional Weather Roundup
Issued by NWS Albany, NY

Home | Current Version | Previous Version | Text Only | Print | Product List | Glossary On
Versions: 1 2 3 4 5 6 7 8 9 10 11 12 13 14 15 16 17 18 19 20 21 22 23 24 25 26 27
000
ASUS41 KALY 230110
RWRALY

NEW YORK STATE HOURLY WEATHER ROUNDUP
NATIONAL WEATHER SERVICE ALBANY NY
900 PM EDT WED MAR 22 2017

NOTE: "FAIR" INDICATES FEW OR NO CLOUDS BELOW 12,000 FEET WITH NO
SIGNIFICANT WEATHER AND/OR NO OBSTRUCTIONS TO VISIBILITY.

NYZ032-033-038>043-046>054-057>066-NYZ062>081-082-084-230200-
EAST


CITY           SKY/WX    TMP DP  RH WIND       PRES   REMARKS
ALBANY         CLEAR     21  -5  31 NW17G26   30.39R WCI   7
GLENS FALLS    CLEAR     19  -6  33 N9G17     30.39R WCI   8
POUGHKEEPSIE   CLEAR     21  -4  33 NW9       30.38R WCI  11
NEWBURGH       CLEAR     21   0  39 SW12G23   30.38R WCI   9
MONTGOMERY     CLEAR     23  -5  29 NW8       30.39R WCI  14
WHITE PLAINS   CLEAR     24  -4  29 NW18G25   30.34R WCI  10
ISLIP          CLEAR     26  -1  31 NW21G29   30.33R WCI  12
NEW YORK CITY  CLEAR     30  -1  26 NW25G35   30.38R WCI  16
CENTRAL PARK   CLEAR     28  -5  23 VRB5      30.40R WCI  23
$$

NYZ005>009-017-018-044>046-055-056-230200-
CENTRAL


CITY           SKY/WX    TMP DP  RH WIND       PRES   REMARKS
FULTON         CLEAR     22   4  46 NW7       30.46S WCI  13
SYRACUSE       PTCLDY    19   8  62 W8        30.46S WCI   9
ROME           CLEAR     17   2  51 W8        30.46R WCI   7
ELMIRA         CLEAR     21   2  43 NE6       30.45R WCI  13
BINGHAMTON     CLEAR     14   3  61 N9        30.37R WCI   2
MONTICELLO     CLOUDY    16  -2  45 NW15      30.34R WCI   1
$$

NYZ026>034-041>043-087-230200-
NORTH


CITY           SKY/WX    TMP DP  RH WIND       PRES   REMARKS
WATERTOWN      CLEAR     11   6  81 CALM      30.45S
FORT DRUM      NOT AVBL
MASSENA        CLEAR     17  -2  43 W6        30.45S WCI   9
SARANAC LAKE   CLEAR      8  -6  52 W5        30.29R WCI   0
PLATTSBURGH    CLEAR     16  -5  39 NW8       30.40R WCI   5
$$

NYZ001>004-010>016-019>021-085-230200-
WEST


CITY           SKY/WX    TMP DP  RH WIND       PRES   REMARKS
NIAGARA FALLS  CLEAR     24   8  50 W3        30.50S
BUFFALO        PTCLDY    24   6  46 NW5       30.50S WCI  18
DUNKIRK        CLEAR     24  11  57 SW6       30.51F WCI  17
JAMESTOWN      CLEAR     19   5  53 SW5       30.43S WCI  13
WELLSVILLE     CLEAR     19   0  43 NW10      30.40R WCI   7
ROCHESTER      CLEAR     23   7  50 W6        30.49S WCI  16
PENN YAN       CLEAR     21   1  41 NW3       30.46R
$$

             KEY
       WCI = WIND CHILL INDEX
       VSB = VISIBILITY
       HX  = HEAT INDEX
$$




USA.gov is the U.S. government's official web portal to all federal, state and local government web resources and services.